Flag for Canada Weather past 2 weeks in Port Coquitlam, British Columbia, Canada

Now
74 °F

Mild.


Feels Like: 77 °F
Forecast: 59 / 85 °F
Wind: 6 mph from Southwest

Location: P. Meadows Coastal Station

Current Time: Jul 7, 2015 at 1:27:20 PM

Latest Report: Jul 7, 2015 at 1:00 PM


Visibility: N/A

Pressure: 29.99 "Hg

Humidity: 53%

Dew point: 55 °F

Location of Port CoquitlamLocation

Historic Weather in Port Coquitlam — Graph

°F

Port Coquitlam temperature yesterday

Maximum temperature yesterday: 83 °F (at 4:00 PM)
Minimum temperature yesterday: 60 °F (at 5:00 AM)
Average temperature yesterday: 72 °F

Past Weeks' High & Low Weather Summary

 TemperatureHumidityPressure
High95 °F (Jul 5, 2:00 PM)94% (Jun 27, 5:00 AM)30.16 "Hg (Jun 27, 5:00 AM)
Low50 °F (Jun 23, 5:00 AM)13% (Jul 5, 1:00 PM)29.75 "Hg (Jul 4, 7:00 PM)
Average73 °F57%29.98 "Hg
* Reported Jun 22 12:00 Noon — Jul 7 12:00 Noon, Port Coquitlam, Weather by CustomWeather, © 2015

Note: Actual official high and low records may vary slightly from our data, if they occured in-between our weather recording intervals... More about our weather records

Advertising

Port Coquitlam weather history for previous 24 hours

 ConditionsComfort  
Time TempWeatherWind HumidityBarometerVisibility
12:00 PM
Tue, Jul 7
74 °FMild.5 mph54%30.01 "HgN/A
11:00 AM71 °FMild.2 mph60%30.03 "HgN/A
10:00 AM68 °FMild.2 mph65%30.04 "HgN/A
9:00 AM67 °FMild.3 mph67%30.05 "HgN/A
8:00 AM64 °FMild.3 mph75%30.05 "HgN/A
7:00 AM62 °FCool.3 mph80%30.04 "HgN/A
6:00 AM60 °FCool.3 mph83%30.03 "HgN/A
5:00 AM60 °FCool.2 mph85%30.02 "HgN/A
4:00 AM60 °FCool.2 mph85%30.00 "HgN/A
3:00 AM58 °FCool.1 mph94%30.00 "HgN/A
2:00 AM62 °FCool.1 mph80%29.98 "HgN/A
1:00 AM63 °FMild.2 mph79%29.98 "HgN/A
12:00 AM64 °FMild.2 mph78%29.98 "HgN/A
11:00 PM
Mon, Jul 6
67 °FMild.2 mph68%29.97 "HgN/A
10:00 PM69 °FMild.2 mph64%29.97 "HgN/A
9:00 PM72 °FMild.2 mph57%29.94 "HgN/A
8:00 PM75 °FMild.5 mph54%29.93 "HgN/A
7:00 PM78 °FWarm.3 mph49%29.94 "HgN/A
6:00 PM80 °FWarm.3 mph44%29.94 "HgN/A
5:00 PM82 °FPleasantly warm.5 mph37%29.95 "HgN/A
4:00 PM83 °FPleasantly warm.5 mph35%29.96 "HgN/A
3:00 PM82 °FPleasantly warm.5 mph34%29.97 "HgN/A
2:00 PM82 °FPleasantly warm.5 mph36%29.97 "HgN/A
1:00 PM82 °FPleasantly warm.2 mph33%29.98 "HgN/A
Weather by CustomWeather, © 2015

See weather overviewHow to use our weather pages